Location: Wawayanda State Park
(41.1833°N, 74.4333°W)
Time: 17:06:20
(UTC-05:00)

Daily predictions for brighter satellites

Satellite Brightness Start Highest point End
(mag) Time Altitude Azimuth Time Altitude Azimuth Time Altitude Azimuth
CZ-2C R/B 2.5 17:19:42 10° SSE 17:24:44 90° ESE 17:29:39 10° NNW
COSMO-SKYMED 1 3.5 17:21:34 10° NE 17:25:19 28° E 17:29:03 10° SSE
YAOGAN 1 2.5 17:22:22 10° SSE 17:26:40 71° ENE 17:30:59 10° N
Cosmos 2360 Rocket 3.2 17:24:54 10° SW 17:30:17 46° WNW 17:35:42 10° NNE
Cosmos 2228 Rocket 3.2 17:26:09 10° N 17:30:31 57° E 17:34:52 10° SSE
Meteor 1-21 Rocket 4.4 17:27:04 10° S 17:32:59 87° E 17:38:53 10° N
Cosmos 1408 Rocket 4.1 17:31:37 10° SSW 17:36:02 63° W 17:40:26 10° N
SJ-6B 4.4 17:35:56 10° ESE 17:38:28 16° ENE 17:41:03 10° NNE
USA 116 3.6 17:35:25 10° N 17:38:39 65° WNW 17:41:43 10° SSW
CZ-4 R/B 4.4 17:35:06 10° SSE 17:39:14 75° ENE 17:43:23 10° N
Cosmos 389 Rocket 3.4 17:39:40 10° NNW 17:43:12 54° W 17:46:40 10° S
Atlas Centaur 2 4.2 17:40:16 10° WSW 17:43:37 17° SSW 17:46:34 10° SSE
Cosmos 2333 Rocket 2.6 17:38:24 10° S 17:43:44 45° ESE 17:49:05 10° NE
COSMOS 2441 4.3 17:39:18 10° SSE 17:44:10 78° ENE 17:49:01 10° N
Cosmos 2058 4.1 17:41:09 10° SE 17:44:21 22° E 17:47:34 10° NE
Cosmos 1763 Rocket 3.6 17:41:32 10° SSW 17:46:46 80° WNW 17:51:58 10° NNE
CORIOLIS 4.5 17:42:46 10° S 17:48:06 73° WSW 17:53:29 10° NNW
Cosmos 2219 Rocket 2.2 17:51:41 10° SSW 17:57:19 76° ESE 18:02:57 10° NNE
Cosmos 1743 Rocket 3.8 17:53:36 10° S 17:58:04 78° W 18:02:33 10° N
Cosmos 2278 Rocket 2.3 17:57:16 10° NNW 18:02:48 51° ENE 18:08:18 10° SE
Cosmos 1328 Rocket 4.1 17:59:13 10° NNW 18:03:37 65° W 18:08:01 10° S
Cosmos 2142 Rocket 4.5 17:57:14 10° N 18:03:40 74° E 18:10:00 10° SSE
USA 215 3.3 18:00:56 10° ESE 18:07:25 68° NE 18:13:56 10° NW
Cosmos 540 Rocket 3.6 18:02:27 10° S 18:07:28 55° ESE 18:12:31 10° NNE
Cosmos 1340 Rocket 3.6 18:04:07 10° SSE 18:07:34 30° E 18:09:40 18° NE
Cosmos 2151 2.9 18:05:37 10° S 18:09:46 62° E 18:13:55 10° NNE
Cosmos 1515 Rocket 3.8 18:06:04 10° NNW 18:10:33 74° W 18:14:59 10° S
Cosmos 332 Rocket 4.2 18:06:12 10° SSW 18:10:58 66° WNW 18:15:48 10° NNE
SKYMED 2 3.6 18:09:12 10° NNE 18:13:34 85° WNW 18:17:54 10° SSW
Cosmos 1844 3.9 18:08:06 10° NNW 18:13:53 78° WSW 18:19:40 10° SSE
Abrixas 3.8 18:12:57 10° SSW 18:15:24 24° SE 18:15:50 24° SE
SL-14 R/B 3.1 18:12:32 10° S 18:16:24 73° E 18:20:23 10° NNE
Cosmos 1805 Rocket 4.2 18:13:31 10° SSE 18:17:30 33° E 18:19:55 20° NE
Cosmos 1626 3.8 18:16:18 10° SE 18:17:51 18° ESE 18:17:51 18° ESE
Cosmos 1151 Rocket 3.0 18:15:55 10° N 18:20:13 85° W 18:24:30 10° S
Cosmos 1634 Rocket 4.2 18:14:16 10° N 18:20:28 76° W 18:26:36 10° S
Cosmos 1484 Rocket 3.9 18:17:47 10° S 18:21:33 48° W 18:25:25 10° NNW
DMSP B5D1-3 4.4 18:18:29 10° NNE 18:23:37 84° ESE 18:28:42 10° SSW
NOAA 12 4.0 18:19:14 10° SSE 18:24:24 68° ENE 18:29:38 10° N
Cosmos 1125 Rocket 3.4 18:19:21 10° NNW 18:24:35 89° W 18:29:47 10° SSE
COSMOS 2428 4.0 18:19:19 10° SW 18:24:37 38° WNW 18:29:55 10° N
Cosmos 1500 Rocket 4.3 18:20:52 10° SSW 18:25:05 54° W 18:29:22 10° N
Cosmos 2237 Rocket 2.1 18:22:18 10° SSW 18:27:55 82° ESE 18:33:00 13° NNE
ALOS 2.8 18:26:54 10° SE 18:31:07 35° ENE 18:35:23 10° N
SL-16 R/B 2.7 18:27:28 10° S 18:32:37 37° ESE 18:34:21 30° ENE
Cosmos 44 3.4 18:28:11 10° SSW 18:33:28 87° SE 18:36:41 23° NNE
Cosmos 1300 3.3 18:30:54 10° NNW 18:34:41 58° W 18:38:26 10° S
Spot 2 Rocket 3.9 18:30:21 10° SE 18:34:59 38° ENE 18:39:38 10° N
Cosmos 1726 3.0 18:33:06 10° NNW 18:36:47 51° W 18:40:26 10° S
Cosmos 371 Rocket 4.3 18:36:51 10° SW 18:41:26 45° WNW 18:46:04 10° N
Transit 2A Rocket 4.3 18:37:10 10° NNW 18:41:29 68° ENE 18:43:20 33° SE
Sich 1 3.7 18:37:28 10° SSE 18:40:52 36° ESE 18:40:52 36° ESE
Cosmos 1538 Rocket 4.5 18:36:57 10° SSE 18:41:47 38° ESE 18:42:15 37° E
Cosmos 2297 3.8 18:36:14 10° NNW 18:41:48 50° ENE 18:44:55 25° SE
NOSS 0 Rocket 4.2 18:36:41 10° SSW 18:42:52 69° WNW 18:48:47 12° NNE
BREEZE-M DEB (TANK) 2.2 18:41:02 10° WSW 18:43:04 63° WSW 18:43:04 63° WSW
Lacrosse 5 rocket 1.3 18:39:58 10° NW 18:43:38 51° NE 18:43:38 51° NE
Cosmos 1633 Rocket 4.3 18:40:34 10° SSE 18:42:53 26° SE 18:42:53 26° SE
SL-19 R/B 4.3 18:38:48 10° SSE 18:44:43 64° ENE 18:50:18 10° N
FREGAT/IRIS 4.5 18:46:20 10° S 18:52:42 - NNW 18:47:34 22° S
OTV 4 2.1 18:46:50 10° WSW 18:49:24 27° SSW 18:49:24 27° SSW
CENTAUR R/B 4.0 18:47:05 10° W 18:52:37 31° NW 18:58:27 11° NNE
Resurs 01 Rocket 1.9 18:54:23 48° NNE 18:54:23 48° NNE 18:57:57 10° N
CZ-3A R/B 2.7 18:58:43 10° NW 19:03:24 73° NE 19:04:51 47° ESE
Lacrosse 5 4.0 19:01:19 10° NW 19:03:51 14° N 19:04:47 13° N
Aureole 2 Rocket 3.2 19:00:30 10° SSW 19:04:03 55° WNW 19:04:38 49° NNW
Cosmos 1707 Rocket 3.4 19:01:30 10° N 19:05:52 87° W 19:10:11 10° S
FengYun 1-2 T 4.1 19:04:10 10° SSE 19:09:45 88° ENE 19:15:19 10° NNW
Cosmos 1461 3.8 19:07:43 10° SSW 19:10:31 39° S 19:10:31 39° S
SJ-6B 4.1 19:08:57 10° S 19:12:47 41° W 19:16:42 10° NNW
Cosmos 1666 Rocket 3.8 19:11:45 10° S 19:15:24 62° SSW 19:15:24 62° SSW
FENGYUN 3A 3.7 19:19:06 10° S 19:24:26 73° WSW 19:29:49 10° NNW
Cosmos 304 Rocket 4.4 19:22:42 10° SW 19:27:23 53° WNW 19:28:08 48° NW
Cosmos 2333 Rocket 4.0 19:23:24 10° WSW 19:28:10 27° NW 19:32:21 13° N
Nadezhda 4 Rocket 4.2 19:27:00 10° SSW 19:33:11 67° W 19:39:30 10° N
Cosmos 2278 Rocket 4.4 19:42:10 10° NW 19:46:28 23° W 19:50:47 10° SSW
Cosmos 1092 Rocket 4.2 19:44:12 10° SSW 19:50:29 69° W 19:51:46 55° NNW
ALOS 4.5 20:04:56 10° SSW 20:08:38 23° W 20:12:20 10° NW
SL-16 R/B 3.7 20:11:43 10° WSW 20:16:19 32° WNW 20:16:19 32° WNW
